period_start,C,m1,H,J0,J1,J2,J3,J4,J5,JA,JB,JC,JD,JJ,JK,JN,#
2016-04-26 00:02:43,0.10,3.75,0.00,25.05,28.55,31.36,14.55,49.82,1028.49,2031.01,2285.88,2252.95,2519.94,599.86,598.71,43.26,0000 0000 0000 0000 000000
2016-04-26 00:07:44,0.11,3.75,0.00,25.07,28.56,31.36,14.63,49.73,1028.74,2031.01,2284.62,2252.02,2518.86,600.11,598.99,43.31,0000 0000 0000 0000 000000
2016-04-26 00:12:46,0.10,3.76,0.00,25.08,28.56,31.35,14.57,49.75,1028.75,2031.00,2283.33,2251.07,2517.74,600.16,599.15,43.36,0000 0000 0000 0000 000000
2016-04-26 00:17:47,0.11,3.76,0.00,25.09,28.57,31.35,14.53,49.55,1028.62,2031.00,2281.81,2250.07,2516.64,599.98,598.82,43.41,0000 0000 0000 0000 000000
2016-04-26 00:22:48,0.10,3.77,0.00,25.11,28.57,31.37,14.47,49.81,1028.38,2031.00,2280.50,2249.08,2515.56,599.55,598.22,43.46,0000 0000 0000 0000 000000
2016-04-26 00:27:49,0.11,3.78,0.00,25.12,28.57,31.39,14.56,49.92,1028.35,2031.00,2278.96,2248.05,2514.36,599.98,598.72,43.51,0000 0000 0000 0000 000000
2016-04-26 00:32:50,0.12,3.78,0.00,25.11,28.57,31.40,14.59,49.72,1028.40,2031.00,2277.36,2246.88,2513.00,599.81,598.58,43.56,0000 0000 0000 0000 000000
2016-04-26 00:37:52,0.14,3.79,0.00,25.13,28.57,31.39,14.60,49.72,1028.61,2031.00,2275.70,2245.78,2511.73,600.22,598.96,43.61,0000 0000 0000 0000 000000
2016-04-26 00:42:53,0.13,3.80,0.00,25.13,28.58,31.39,14.59,49.80,1028.71,2031.00,2274.08,2244.59,2510.41,600.17,598.95,43.66,0000 0000 0000 0000 000000
2016-04-26 00:47:54,0.13,3.80,0.00,25.13,28.60,31.38,14.57,49.77,1028.68,2031.00,2272.38,2243.42,2508.96,599.86,598.70,43.71,0000 0000 0000 0000 000000
2016-04-26 00:52:56,0.14,3.81,0.00,25.15,28.60,31.38,14.60,49.73,1028.76,2031.00,2270.49,2242.16,2507.55,599.88,598.79,43.76,0000 0000 0000 0000 000000
2016-04-26 00:57:57,0.14,3.82,0.00,25.16,28.60,31.41,14.54,49.67,1028.79,2030.99,2268.62,2240.84,2506.05,599.86,598.69,43.81,0000 0000 0000 0000 000000
2016-04-26 01:02:59,0.15,3.82,0.00,25.17,28.60,31.42,14.58,49.73,1028.71,2030.99,2266.70,2239.57,2504.55,600.01,598.71,43.86,0000 0000 0000 0000 000000
2016-04-26 01:08:00,0.14,3.83,0.00,25.16,28.62,31.39,14.59,49.69,1028.49,2030.99,2264.72,2238.38,2502.94,600.16,598.75,43.91,0000 0000 0000 0000 000000
2016-04-26 01:13:01,0.16,3.84,0.00,25.15,28.62,31.42,14.55,49.60,1028.58,2030.99,2262.61,2236.89,2501.24,599.89,598.61,43.96,0000 0000 0000 0000 000000
2016-04-26 01:18:03,0.16,3.85,0.00,25.17,28.62,31.44,14.57,49.70,1028.44,2030.96,2260.61,2235.54,2499.64,600.00,598.58,44.01,0000 0000 0000 0000 000000
2016-04-26 01:23:04,0.14,3.86,0.00,25.20,28.62,31.43,14.53,49.67,1028.35,2030.94,2258.63,2234.16,2498.07,599.97,598.41,44.06,0000 0000 0000 0000 000000
2016-04-26 01:28:05,0.17,3.86,0.00,25.20,28.64,31.44,14.61,49.77,1028.34,2030.95,2256.63,2232.67,2496.43,599.93,598.43,44.12,0000 0000 0000 0000 000000
2016-04-26 01:33:07,0.16,3.87,0.00,25.20,28.65,31.44,14.55,49.65,1028.34,2030.93,2254.50,2231.19,2494.79,599.98,598.45,44.17,0000 0000 0000 0000 000000
2016-04-26 01:38:08,0.15,3.88,0.00,25.21,28.65,31.42,14.67,49.59,1028.36,2030.71,2252.33,2229.65,2493.07,600.48,598.92,44.22,0000 0000 0000 0000 000000
2016-04-26 01:43:10,0.15,3.89,0.00,25.19,28.66,31.45,14.60,49.77,1028.36,2030.51,2250.16,2228.11,2491.35,600.19,598.70,44.27,0000 0000 0000 0000 000000
2016-04-26 01:48:11,0.14,3.90,0.00,25.16,28.67,31.46,14.46,49.58,1028.35,2030.35,2247.99,2226.62,2489.57,599.81,598.30,44.32,0000 0000 0000 0000 000000
2016-04-26 01:53:12,0.17,3.90,0.00,25.15,28.67,31.47,14.61,49.49,1028.35,2030.21,2245.78,2225.04,2487.77,600.19,598.76,44.37,0000 0000 0000 0000 000000
2016-04-26 01:58:13,0.16,3.91,0.00,25.17,28.68,31.47,14.61,49.58,1028.34,2030.13,2243.58,2223.59,2485.95,600.39,598.95,44.42,0000 0000 0000 0000 000000
2016-04-26 02:03:15,0.15,3.92,0.00,25.15,28.70,31.48,14.56,49.70,1028.34,2030.08,2241.44,2222.04,2484.27,600.37,598.93,44.47,0000 0000 0000 0000 000000
2016-04-26 02:08:16,0.16,3.93,0.00,25.14,28.70,31.47,14.57,49.67,1028.34,2030.04,2239.50,2220.65,2482.64,600.05,598.63,44.52,0000 0000 0000 0000 000000
2016-04-26 02:13:17,0.17,3.94,0.00,25.17,28.70,31.47,14.57,49.67,1028.32,2030.01,2237.46,2219.09,2480.83,599.98,598.45,44.57,0000 0000 0000 0000 000000
2016-04-26 02:18:18,0.17,3.95,0.00,25.18,28.72,31.49,14.58,49.73,1028.25,2030.04,2235.41,2217.66,2479.20,600.26,598.69,44.62,0000 0000 0000 0000 000000
2016-04-26 02:23:20,0.16,3.95,0.00,25.19,28.72,31.49,14.64,49.62,1028.28,2030.01,2233.23,2216.18,2477.39,600.03,598.74,44.67,0000 0000 0000 0000 000000
2016-04-26 02:28:21,0.18,3.96,0.00,25.17,28.72,31.49,14.49,49.60,1028.29,2030.00,2231.09,2214.63,2475.64,599.81,598.24,44.72,0000 0000 0000 0000 000000
2016-04-26 02:33:22,0.16,3.97,0.00,25.18,28.73,31.52,14.56,49.57,1028.33,2030.00,2229.00,2213.17,2473.93,599.88,598.39,44.77,0000 0000 0000 0000 000000
2016-04-26 02:38:23,0.17,3.98,0.00,25.20,28.74,31.52,14.55,49.76,1028.34,2030.00,2226.97,2211.72,2472.29,599.96,598.48,44.82,0000 0000 0000 0000 000000
2016-04-26 02:43:25,0.16,3.99,0.00,25.20,28.75,31.51,14.56,49.73,1028.34,2030.00,2224.91,2210.36,2470.65,600.43,598.95,44.87,0000 0000 0000 0000 000000
2016-04-26 02:48:26,0.16,4.00,0.00,25.22,28.75,31.52,14.51,49.75,1028.34,2030.00,2222.84,2208.90,2468.92,600.22,598.59,44.92,0000 0000 0000 0000 000000
2016-04-26 02:53:27,0.15,4.01,0.00,25.25,28.75,31.53,14.59,49.76,1028.33,2030.00,2220.88,2207.61,2467.46,600.30,598.61,44.97,0000 0000 0000 0000 000000
2016-04-26 02:58:28,0.15,4.01,0.00,25.22,28.75,31.51,14.64,49.63,1028.34,2030.00,2219.04,2206.32,2465.92,600.09,598.50,45.03,0000 0000 0000 0000 000000
2016-04-26 03:03:29,0.15,4.02,0.00,25.22,28.75,31.53,14.53,49.60,1028.36,2030.00,2217.07,2204.94,2464.31,599.95,598.43,45.08,0000 0000 0000 0000 000000
2016-04-26 03:08:30,0.16,4.03,0.00,25.24,28.75,31.54,14.46,49.58,1028.34,2030.00,2215.20,2203.64,2462.73,599.81,598.21,45.13,0000 0000 0000 0000 000000
2016-04-26 03:13:32,0.14,4.04,0.00,25.25,28.76,31.53,14.56,49.56,1028.34,2030.00,2213.32,2202.36,2461.23,600.06,598.47,45.18,0000 0000 0000 0000 000000
2016-04-26 03:18:33,0.14,4.04,0.00,25.26,28.77,31.53,14.60,49.59,1028.34,2029.99,2211.52,2201.08,2459.73,599.98,598.32,45.23,0000 0000 0000 0000 000000
2016-04-26 03:23:34,0.16,4.05,0.00,25.25,28.77,31.52,14.54,49.52,1028.35,2029.98,2209.62,2199.71,2458.17,599.92,598.34,45.28,0000 0000 0000 0000 000000
2016-04-26 03:28:36,0.15,4.06,0.00,25.26,28.77,31.53,14.46,49.38,1028.34,2029.99,2207.80,2198.50,2456.70,599.74,598.08,45.33,0000 0000 0000 0000 000000
2016-04-26 03:33:37,0.13,4.07,0.00,25.28,28.77,31.55,14.54,49.48,1028.34,2029.98,2205.93,2197.26,2455.25,600.02,598.31,45.38,0000 0000 0000 0000 000000
2016-04-26 03:38:38,0.15,4.08,0.00,25.29,28.77,31.55,14.52,49.38,1028.34,2029.95,2204.08,2195.93,2453.72,599.85,598.08,45.43,0000 0000 0000 0000 000000
2016-04-26 03:43:39,0.14,4.08,0.00,25.27,28.78,31.53,14.50,49.42,1028.34,2029.94,2202.39,2194.68,2452.36,599.86,598.18,45.48,0000 0000 0000 0000 000000
2016-04-26 03:48:41,0.15,4.09,0.00,25.29,28.79,31.53,14.62,49.48,1028.34,2029.93,2200.61,2193.39,2450.82,600.07,598.30,45.53,0000 0000 0000 0000 000000
2016-04-26 03:53:42,0.13,4.10,0.00,25.32,28.80,31.52,14.54,49.32,1028.34,2029.89,2198.84,2192.20,2449.40,599.99,598.27,45.58,0000 0000 0000 0000 000000
2016-04-26 03:58:44,0.15,4.11,0.00,25.32,28.80,31.54,14.55,49.30,1028.34,2029.89,2196.89,2190.88,2447.86,600.10,598.27,45.63,0000 0000 0000 0000 000000
2016-04-26 04:03:45,0.16,4.11,0.00,25.32,28.80,31.53,14.49,49.38,1028.34,2029.90,2194.96,2189.61,2446.40,599.71,597.94,45.68,0000 0000 0000 0000 000000
2016-04-26 04:08:46,0.13,4.12,0.00,25.34,28.80,31.55,14.56,49.43,1028.34,2029.82,2193.18,2188.32,2444.82,600.12,598.28,45.73,0000 0000 0000 0000 000000
2016-04-26 04:13:48,0.11,4.13,0.00,25.37,28.80,31.57,14.47,49.39,1028.34,2029.67,2191.34,2187.03,2443.39,600.03,598.15,45.78,0000 0000 0000 0000 000000
2016-04-26 04:18:49,0.18,4.13,0.00,25.37,28.81,31.55,14.53,49.36,1028.34,2029.65,2189.51,2185.79,2441.93,599.85,597.95,45.84,0000 0000 0000 0000 000000
2016-04-26 04:23:50,0.12,4.14,0.00,25.37,28.82,31.56,14.62,49.48,1028.34,2029.44,2187.72,2184.54,2440.48,600.12,598.19,45.89,0000 0000 0000 0000 000000
2016-04-26 04:28:51,0.10,4.15,0.00,25.40,28.82,31.57,14.60,49.46,1028.32,2029.16,2185.89,2183.23,2438.98,600.14,598.33,45.94,0000 0000 0000 0000 000000
2016-04-26 04:33:52,0.14,4.15,0.00,25.42,28.82,31.57,14.58,49.37,1028.30,2029.10,2184.08,2181.99,2437.53,600.07,598.11,45.99,0000 0000 0000 0000 000000
2016-04-26 04:38:53,0.14,4.16,0.00,25.40,28.82,31.58,14.52,49.57,1028.33,2029.06,2182.27,2180.72,2436.05,599.88,597.92,46.04,0000 0000 0000 0000 000000
2016-04-26 04:43:55,0.14,4.17,0.00,25.41,28.83,31.58,14.51,49.44,1028.33,2029.02,2180.58,2179.56,2434.68,600.08,598.15,46.09,0000 0000 0000 0000 000000
2016-04-26 04:48:56,0.14,4.18,0.00,25.44,28.84,31.58,14.58,49.38,1028.33,2029.03,2178.66,2178.30,2433.19,599.92,597.90,46.14,0000 0000 0000 0000 000000
2016-04-26 04:53:58,0.14,4.18,0.00,25.45,28.85,31.59,14.60,49.51,1028.33,2029.03,2176.84,2177.07,2431.79,600.12,598.09,46.19,0000 0000 0000 0000 000000
2016-04-26 04:58:59,0.14,4.19,0.00,25.45,28.85,31.59,14.56,49.42,1028.33,2029.04,2175.11,2175.84,2430.53,600.00,597.95,46.24,0000 0000 0000 0000 000000
2016-04-26 05:04:00,0.14,4.20,0.00,25.47,28.85,31.59,14.45,49.28,1028.32,2029.02,2173.36,2174.69,2428.92,599.73,597.75,46.29,0000 0000 0000 0000 000000
2016-04-26 05:09:02,0.15,4.21,0.00,25.49,28.85,31.59,14.48,49.38,1028.33,2029.03,2171.54,2173.48,2427.51,599.73,597.57,46.34,0000 0000 0000 0000 000000
2016-04-26 05:14:03,0.14,4.21,0.00,25.47,28.85,31.59,14.53,49.23,1028.31,2029.00,2169.73,2172.24,2426.01,600.07,597.97,46.39,0000 0000 0000 0000 000000
2016-04-26 05:19:04,0.13,4.22,0.00,25.49,28.86,31.59,14.49,49.40,1027.93,2029.00,2168.08,2171.03,2424.75,599.99,597.62,46.44,0000 0000 0000 0000 000000
2016-04-26 05:24:06,0.15,4.23,0.00,25.50,28.87,31.59,14.63,49.41,1027.85,2029.00,2166.28,2169.82,2423.35,600.17,597.82,46.49,0000 0000 0000 0000 000000
2016-04-26 05:29:07,0.15,4.24,0.00,25.49,28.87,31.61,14.50,49.41,1027.76,2029.00,2164.52,2168.62,2421.81,599.86,597.40,46.54,0000 0000 0000 0000 000000
2016-04-26 05:34:08,0.14,4.24,0.00,25.47,28.87,31.60,14.51,49.67,1027.36,2029.00,2162.69,2167.41,2420.47,599.89,597.24,46.59,0000 0000 0000 0000 000000
2016-04-26 05:39:10,0.14,4.25,0.00,25.50,28.87,31.60,14.47,49.67,1027.34,2029.00,2160.88,2166.11,2419.02,599.76,597.12,46.64,0000 0000 0000 0000 000000
2016-04-26 05:44:11,0.16,4.26,0.00,25.48,28.87,31.60,14.50,49.76,1027.36,2029.00,2158.99,2164.83,2417.56,599.48,596.96,46.69,0000 0000 0000 0000 000000
2016-04-26 05:49:12,0.16,4.27,0.00,25.47,28.87,31.61,14.53,49.67,1027.36,2029.00,2157.02,2163.55,2416.03,599.74,597.10,46.74,0000 0000 0000 0000 000000
2016-04-26 05:54:13,0.15,4.27,0.00,25.47,28.87,31.62,14.53,49.63,1027.36,2029.00,2155.07,2162.31,2414.50,599.83,597.16,46.80,0000 0000 0000 0000 000000
2016-04-26 05:59:14,0.15,4.28,0.00,25.46,28.87,31.61,14.48,49.56,1027.41,2029.00,2153.31,2161.01,2413.02,600.01,597.44,46.85,0000 0000 0000 0000 000000
2016-04-26 06:04:16,0.16,4.29,0.00,25.45,28.87,31.62,14.54,49.48,1027.63,2028.99,2151.40,2159.78,2411.58,600.10,597.85,46.90,0000 0000 0000 0000 000000
2016-04-26 06:09:17,0.14,4.30,0.00,25.47,28.87,31.63,14.44,49.41,1027.71,2028.99,2149.62,2158.60,2410.16,599.94,597.46,46.95,0000 0000 0000 0000 000000
2016-04-26 06:14:18,0.15,4.31,0.00,25.47,28.87,31.62,14.60,49.44,1027.84,2028.99,2147.67,2157.35,2408.61,600.24,597.88,47.00,0000 0000 0000 0000 000000
2016-04-26 06:19:19,0.15,4.31,0.00,25.45,28.87,31.62,14.47,49.43,1027.85,2028.99,2145.81,2156.06,2407.16,599.98,597.67,47.05,0000 0000 0000 0000 000000
2016-04-26 06:24:21,0.15,4.32,0.00,25.48,28.87,31.62,14.59,49.49,1027.83,2028.98,2144.05,2154.83,2405.72,600.21,597.70,47.10,0000 0000 0000 0000 000000
2016-04-26 06:29:22,0.15,4.33,0.00,25.47,28.87,31.63,14.51,49.37,1027.74,2028.99,2142.18,2153.57,2404.31,600.23,597.73,47.15,0000 0000 0000 0000 000000
2016-04-26 06:34:23,0.14,4.34,0.00,25.47,28.87,31.62,14.50,49.48,1027.67,2028.98,2140.40,2152.36,2402.91,599.72,597.26,47.20,0000 0000 0000 0000 000000
2016-04-26 06:39:25,0.16,4.34,0.00,25.47,28.87,31.63,14.40,49.30,1027.53,2028.98,2138.44,2151.03,2401.40,599.63,597.08,47.25,0000 0000 0000 0000 000000
2016-04-26 06:44:26,0.16,4.35,0.00,25.48,28.87,31.62,14.50,49.44,1027.55,2028.98,2136.56,2149.69,2399.84,599.96,597.36,47.30,0000 0000 0000 0000 000000
2016-04-26 06:49:28,0.15,4.36,0.00,25.46,28.87,31.62,14.48,49.37,1027.72,2028.99,2134.56,2148.43,2398.35,599.81,597.40,47.35,0000 0000 0000 0000 000000
2016-04-26 06:54:29,0.16,4.37,0.00,25.46,28.87,31.63,14.49,49.40,1027.75,2028.99,2132.68,2147.16,2396.81,599.72,597.29,47.40,0000 0000 0000 0000 000000
2016-04-26 06:59:30,0.17,4.38,0.00,25.47,28.87,31.63,14.52,49.56,1027.78,2028.99,2130.75,2145.83,2395.33,600.03,597.73,47.45,0000 0000 0000 0000 000000
2016-04-26 07:04:31,0.16,4.39,0.00,25.46,28.87,31.63,14.53,49.22,1027.85,2028.98,2128.86,2144.58,2393.76,600.32,598.01,47.50,0000 0000 0000 0000 000000
2016-04-26 07:09:33,0.14,4.40,0.00,25.45,28.87,31.64,14.49,49.24,1027.84,2028.99,2127.06,2143.28,2392.37,600.23,597.93,47.55,0000 0000 0000 0000 000000
2016-04-26 07:14:34,0.15,4.40,0.00,25.47,28.87,31.63,14.59,49.50,1027.84,2028.99,2125.30,2141.96,2390.89,600.24,597.87,47.60,0000 0000 0000 0000 000000
2016-04-26 07:19:35,0.17,4.41,0.00,25.46,28.87,31.62,14.57,49.38,1027.84,2028.99,2123.42,2140.58,2389.38,600.06,597.92,47.66,0000 0000 0000 0000 000000
2016-04-26 07:24:37,0.16,4.42,0.00,25.45,28.87,31.61,14.56,49.49,1027.84,2028.98,2121.42,2139.22,2387.79,599.83,597.50,47.71,0000 0000 0000 0000 000000
2016-04-26 07:29:38,0.18,4.43,0.00,25.48,28.87,31.63,14.56,49.41,1027.84,2028.98,2119.32,2137.75,2386.11,600.09,597.76,47.76,0000 0000 0000 0000 000000
2016-04-26 07:34:40,0.16,4.44,0.00,25.50,28.87,31.61,14.61,49.42,1027.85,2028.99,2117.34,2136.42,2384.53,600.40,597.98,47.81,0000 0000 0000 0000 000000
2016-04-26 07:39:41,0.16,4.45,0.00,25.48,28.87,31.62,14.53,49.41,1027.86,2028.99,2115.45,2135.06,2382.94,599.80,597.47,47.86,0000 0000 0000 0000 000000
2016-04-26 07:44:42,0.17,4.45,0.00,25.47,28.87,31.62,14.50,49.33,1027.97,2028.98,2113.43,2133.62,2381.38,600.02,597.74,47.91,0000 0000 0000 0000 000000
2016-04-26 07:49:43,0.17,4.46,0.00,25.50,28.87,31.62,14.56,49.39,1028.26,2028.98,2111.45,2132.25,2379.75,599.82,597.67,47.96,0000 0000 0000 0000 000000
2016-04-26 07:54:45,0.13,4.47,0.00,25.56,28.87,31.64,14.44,49.29,1028.29,2028.98,2110.02,2130.98,2378.37,599.86,597.52,48.01,0000 0000 0000 0000 000000
2016-04-26 07:59:46,0.17,4.48,0.00,25.64,28.87,31.62,14.54,49.53,1028.15,2028.95,2108.17,2129.63,2376.83,599.80,597.42,48.06,0000 0000 0000 0000 000000
2016-04-26 08:04:47,0.15,4.49,0.00,25.70,28.87,31.62,14.53,49.60,1028.11,2028.96,2106.23,2128.36,2375.36,600.39,597.62,48.11,0000 0000 0000 0000 000000
2016-04-26 08:09:49,0.19,4.50,0.00,25.74,28.87,31.61,14.47,49.23,1028.33,2028.98,2104.12,2126.95,2373.68,599.81,597.21,48.16,0000 0000 0000 0000 000000
2016-04-26 08:14:50,0.12,4.50,0.00,25.79,28.88,31.64,14.44,49.33,1028.33,2028.97,2102.46,2125.79,2372.35,599.88,597.04,48.21,0000 0000 0000 0000 000000
2016-04-26 08:19:51,0.13,4.51,0.00,25.84,28.90,31.63,14.45,49.30,1028.33,2028.98,2101.00,2124.72,2371.19,599.69,596.78,48.26,0000 0000 0000 0000 000000
2016-04-26 08:24:52,0.14,4.52,0.00,25.87,28.90,31.63,14.46,49.29,1028.33,2028.91,2099.32,2123.56,2369.82,600.03,597.31,48.31,0000 0000 0000 0000 000000
2016-04-26 08:29:54,0.15,4.53,0.00,25.91,28.90,31.63,14.52,49.28,1028.35,2028.90,2097.66,2122.39,2368.47,600.18,597.07,48.36,0000 0000 0000 0000 000000
2016-04-26 08:34:55,0.11,4.53,0.00,25.94,28.90,31.63,14.42,49.58,1028.35,2028.91,2096.26,2121.42,2367.35,599.98,596.96,48.41,0000 0000 0000 0000 000000
2016-04-26 08:39:57,0.11,4.54,0.00,25.91,28.91,31.63,14.51,49.50,1028.35,2028.70,2094.61,2120.35,2366.27,600.35,597.41,48.46,0000 0000 0000 0000 000000
2016-04-26 08:44:58,0.12,4.54,0.00,25.88,28.92,31.63,14.45,49.41,1028.37,2028.52,2092.87,2119.18,2364.82,599.80,596.93,48.51,0000 0000 0000 0000 000000
2016-04-26 08:49:59,0.11,4.55,0.00,25.85,28.92,31.66,14.51,49.49,1028.37,2028.48,2091.34,2118.09,2363.58,600.08,597.27,48.57,0000 0000 0000 0000 000000
2016-04-26 08:55:01,0.12,4.56,0.00,25.84,28.92,31.67,14.49,49.45,1028.44,2028.19,2089.68,2116.96,2362.30,599.89,597.03,48.62,0000 0000 0000 0000 000000
2016-04-26 09:00:02,0.15,4.56,0.00,25.81,28.92,31.67,14.44,49.50,1028.43,2028.15,2088.03,2115.77,2360.86,600.01,597.20,48.67,0000 0000 0000 0000 000000
2016-04-26 09:05:03,0.16,4.57,0.00,25.78,28.92,31.67,14.47,49.53,1028.54,2028.21,2086.28,2114.59,2359.47,599.82,597.22,48.72,0000 0000 0000 0000 000000
2016-04-26 09:10:04,0.13,4.58,0.00,25.77,28.91,31.68,14.50,49.49,1028.53,2028.18,2084.68,2113.50,2358.04,599.91,597.36,48.77,0000 0000 0000 0000 000000
2016-04-26 09:15:06,0.13,4.59,0.00,25.76,28.90,31.69,14.46,49.43,1028.49,2028.14,2083.17,2112.31,2356.64,600.11,597.57,48.82,0000 0000 0000 0000 000000
2016-04-26 09:20:07,0.13,4.59,0.00,25.73,28.90,31.69,14.45,49.63,1028.57,2028.16,2081.53,2111.16,2355.30,599.73,597.28,48.87,0000 0000 0000 0000 000000
2016-04-26 09:25:08,0.14,4.60,0.00,25.70,28.90,31.70,14.53,49.49,1028.60,2028.15,2080.01,2110.06,2353.88,600.02,597.71,48.92,0000 0000 0000 0000 000000
2016-04-26 09:30:10,0.15,4.61,0.00,25.70,28.89,31.70,14.56,49.45,1028.46,2028.13,2078.44,2108.90,2352.46,600.25,597.76,48.97,0000 0000 0000 0000 000000
2016-04-26 09:35:11,0.12,4.61,0.00,25.70,28.87,31.69,14.52,49.78,1028.36,2028.12,2077.31,2107.77,2351.44,600.17,597.73,49.02,0000 0000 0000 0000 000000
2016-04-26 09:40:12,0.14,4.62,0.00,25.67,28.87,31.69,14.49,49.70,1028.35,2028.14,2075.77,2106.67,2350.00,599.45,596.90,49.07,0000 0000 0000 0000 000000
2016-04-26 09:45:14,0.18,4.63,0.00,25.65,28.87,31.69,14.50,49.65,1028.36,2028.45,2074.36,2105.56,2348.74,599.97,597.45,49.12,0000 0000 0000 0000 000000
2016-04-26 09:50:15,0.14,4.64,0.00,25.65,28.87,31.68,14.51,49.40,1028.38,2028.60,2072.93,2104.47,2347.46,599.92,597.46,49.17,0000 0000 0000 0000 000000
2016-04-26 09:55:17,0.13,4.64,0.00,25.65,28.86,31.69,14.55,49.54,1028.41,2028.72,2071.64,2103.38,2346.22,599.86,597.48,49.22,0000 0000 0000 0000 000000
2016-04-26 10:00:18,0.13,4.65,0.00,25.61,28.85,31.68,14.49,49.53,1028.51,2028.78,2070.32,2102.18,2344.86,599.86,597.58,49.27,0000 0000 0000 0000 000000
2016-04-26 10:05:19,0.15,4.66,0.00,25.60,28.85,31.68,14.56,49.39,1028.76,2028.86,2068.81,2100.99,2343.53,599.88,597.77,49.32,0000 0000 0000 0000 000000
2016-04-26 10:10:20,0.12,4.67,0.00,25.60,28.85,31.69,14.46,49.61,1028.65,2028.80,2067.57,2099.79,2342.28,599.95,597.82,49.37,0000 0000 0000 0000 000000
2016-04-26 10:15:22,0.16,4.67,0.00,25.58,28.85,31.67,14.59,49.41,1028.79,2028.85,2066.06,2098.57,2340.80,600.03,597.99,49.42,0000 0000 0000 0000 000000
2016-04-26 10:20:23,0.13,4.68,0.00,25.57,28.84,31.67,14.50,49.30,1028.83,2028.85,2064.69,2097.30,2339.35,599.72,597.70,49.48,0000 0000 0000 0000 000000
2016-04-26 10:25:24,0.11,4.69,0.00,25.57,28.83,31.66,14.54,49.35,1028.83,2028.79,2063.61,2096.19,2338.34,600.04,597.98,49.53,0000 0000 0000 0000 000000
2016-04-26 10:30:26,0.10,4.69,0.00,25.56,28.82,31.66,14.55,49.39,1028.83,2028.64,2062.49,2095.00,2337.20,599.99,597.97,49.58,0000 0000 0000 0000 000000
2016-04-26 10:35:27,0.12,4.70,0.00,25.54,28.82,31.67,14.51,49.25,1028.83,2028.50,2061.11,2093.85,2335.84,600.08,598.07,49.63,0000 0000 0000 0000 000000
2016-04-26 10:40:28,0.20,4.71,0.00,25.54,28.82,31.66,14.55,49.20,1028.83,2028.77,2059.53,2092.62,2334.44,600.26,598.32,49.68,0000 0000 0000 0000 000000
2016-04-26 10:45:30,0.13,4.72,0.00,25.54,28.82,31.66,14.59,49.38,1028.83,2028.74,2057.95,2091.38,2332.88,600.24,598.39,49.73,0000 0000 0000 0000 000000
2016-04-26 10:50:31,0.15,4.72,0.00,25.52,28.82,31.65,14.44,49.29,1028.82,2028.65,2056.39,2090.00,2331.39,599.82,597.91,49.78,0000 0000 0000 0000 000000
2016-04-26 10:55:33,0.18,4.73,0.00,25.52,28.82,31.65,14.47,49.10,1028.81,2028.79,2054.80,2088.67,2329.92,600.19,598.33,49.83,0000 0000 0000 0000 000000
2016-04-26 11:00:34,0.13,4.74,0.00,25.52,28.81,31.66,14.56,49.30,1028.77,2028.80,2053.58,2087.49,2328.65,599.82,597.92,49.88,0000 0000 0000 0000 000000
2016-04-26 11:05:35,0.14,4.75,0.00,25.50,28.80,31.65,14.52,49.24,1028.81,2028.80,2052.12,2086.16,2327.30,600.07,598.36,49.93,0000 0000 0000 0000 000000
2016-04-26 11:10:36,0.17,4.76,0.00,25.50,28.80,31.64,14.53,49.15,1028.82,2028.81,2050.62,2084.83,2325.73,600.12,598.32,49.98,0000 0000 0000 0000 000000
2016-04-26 11:15:37,0.14,4.76,0.00,25.51,28.80,31.65,14.46,49.24,1028.82,2028.80,2049.18,2083.56,2324.39,599.97,598.11,50.03,0000 0000 0000 0000 000000
2016-04-26 11:20:38,0.18,4.77,0.00,25.50,28.80,31.64,14.50,49.12,1028.82,2028.89,2047.48,2082.12,2322.76,599.99,598.08,50.08,0000 0000 0000 0000 000000
2016-04-26 11:25:39,0.13,4.78,0.00,25.50,28.80,31.63,14.54,49.17,1028.82,2028.80,2046.16,2080.75,2321.23,600.33,598.51,50.13,0000 0000 0000 0000 000000
2016-04-26 11:30:41,0.16,4.79,0.00,25.50,28.80,31.62,14.50,49.08,1028.83,2028.77,2044.72,2079.45,2319.86,600.41,598.38,50.18,0000 0000 0000 0000 000000
2016-04-26 11:35:42,0.14,4.79,0.00,25.49,28.80,31.62,14.46,49.13,1028.83,2028.79,2043.40,2078.12,2318.49,599.88,598.08,50.23,0000 0000 0000 0000 000000
2016-04-26 11:40:43,0.13,4.80,0.00,25.47,28.80,31.62,14.55,49.43,1028.83,2028.90,2042.14,2076.92,2317.23,600.09,598.26,50.28,0000 0000 0000 0000 000000
2016-04-26 11:45:44,0.15,4.81,0.00,25.47,28.80,31.61,14.50,49.16,1028.83,2028.85,2040.74,2075.71,2315.98,600.17,598.39,50.34,0000 0000 0000 0000 000000
2016-04-26 11:50:45,0.11,4.81,0.00,25.48,28.80,31.61,14.52,49.23,1028.85,2028.85,2039.73,2074.70,2314.84,599.93,598.14,50.39,0000 0000 0000 0000 000000
2016-04-26 11:55:47,0.13,4.82,0.00,25.47,28.80,31.61,14.55,49.12,1028.88,2028.83,2038.48,2073.58,2313.72,599.99,598.36,50.44,0000 0000 0000 0000 000000
2016-04-26 12:00:48,0.11,4.83,0.00,25.46,28.80,31.61,14.57,49.11,1028.86,2028.80,2037.13,2072.51,2312.50,599.88,598.14,50.49,0000 0000 0000 0000 000000
2016-04-26 12:05:49,0.11,4.83,0.00,25.48,28.80,31.59,14.50,49.13,1028.96,2028.84,2036.00,2071.48,2311.36,599.81,598.08,50.54,0000 0000 0000 0000 000000
2016-04-26 12:10:51,0.12,4.84,0.00,25.49,28.80,31.60,14.51,49.24,1028.90,2028.84,2035.10,2070.58,2310.53,599.95,598.21,50.59,0000 0000 0000 0000 000000
2016-04-26 12:15:52,0.09,4.84,0.00,25.46,28.80,31.60,14.51,49.18,1028.84,2028.79,2034.19,2069.73,2309.52,599.84,598.15,50.64,0000 0000 0000 0000 000000
2016-04-26 12:20:53,0.09,4.85,0.00,25.46,28.80,31.61,14.60,49.29,1028.83,2028.84,2033.26,2068.91,2308.67,600.17,598.43,50.69,0000 0000 0000 0000 000000
2016-04-26 12:25:54,0.10,4.85,0.00,25.46,28.80,31.60,14.53,49.42,1028.74,2028.83,2032.34,2067.96,2307.70,599.99,598.25,50.74,0000 0000 0000 0000 000000
2016-04-26 12:30:55,0.10,4.86,0.00,25.44,28.80,31.60,14.50,49.23,1028.56,2028.79,2031.46,2067.08,2306.78,600.00,598.02,50.79,0000 0000 0000 0000 000000
2016-04-26 12:35:57,0.10,4.87,0.00,25.42,28.79,31.59,14.51,49.25,1028.44,2028.83,2030.49,2066.19,2305.79,599.76,598.01,50.84,0000 0000 0000 0000 000000
2016-04-26 12:40:58,0.11,4.87,0.00,25.45,28.79,31.60,14.50,49.21,1028.42,2028.81,2029.23,2065.21,2304.87,600.09,598.26,50.89,0000 0000 0000 0000 000000
2016-04-26 12:45:59,0.08,4.88,0.00,25.44,28.79,31.60,14.61,49.20,1028.56,2028.71,2028.34,2064.45,2303.88,599.92,598.12,50.94,0000 0000 0000 0000 000000
2016-04-26 12:51:00,0.11,4.88,0.00,25.42,28.78,31.58,14.52,49.35,1028.68,2028.71,2027.45,2063.59,2303.00,599.75,597.97,50.99,0000 0000 0000 0000 000000
2016-04-26 12:56:02,0.09,4.89,0.00,25.42,28.77,31.58,14.56,49.33,1028.80,2028.69,2026.43,2062.73,2302.15,600.12,598.25,51.04,0000 0000 0000 0000 000000